Flag for United Arab Emirates

Past Weather in Abu Dhabi, Abu Dhabi, United Arab Emirates — September 2019

Now
95 °F

Passing clouds.


Feels Like: 90 °F
Forecast: 92 / 78 °F
Wind: 5 mph from Southeast

Location: Abu Dhabi Bateen Airport
Current Time: Oct 24, 2020 at 2:14:12 pm
Latest Report: Oct 24, 2020 at 1:00 pm
Visibility: N/A
Pressure29.86 "Hg
Humidity: 9%
Dew Point: 28 °F
Location of Abu DhabiLocation

September 2019 Weather in Abu Dhabi — Graph

°F

High & Low Weather Summary for September 2019

 TemperatureHumidityPressure
High113 °F (Sep 7, 1:00 pm)100% (Sep 2, 11:00 pm)29.86 "Hg (Sep 2, 11:00 pm)
Low75 °F (Sep 2, 11:00 pm)9% (Sep 7, 1:00 pm)29.42 "Hg (Sep 7, 4:00 pm)
Average94 °F60%29.62 "Hg
* Reported Sep 1 12:00 am — Sep 30 11:00 pm, Abu Dhabi. Weather by CustomWeather, © 2020

Note: Actual official high and low records may vary slightly from our data, if they occured in-between our weather recording intervals... More about our weather records

Abu Dhabi Weather History for September 1, 2019

Scroll right to see more
 ConditionsComfort  
Time TempWeatherWind HumidityBarometerVisibility
12:00 am
Sun, Sep 1
93 °FClear.2 mph56%29.47 "Hg10 mi
1:00 am91 °FClear.2 mph59%29.45 "Hg10 mi
2:00 am91 °FClear.2 mph63%29.45 "Hg6 mi
3:00 am90 °FClear.6 mph67%29.45 "Hg6 mi
4:00 am91 °FClear.2 mph52%29.45 "Hg10 mi
5:00 am91 °FClear.2 mph52%29.45 "Hg10 mi
6:00 am91 °FClear.2 mph56%29.47 "Hg10 mi
7:00 am91 °FSunny.2 mph52%29.50 "Hg10 mi
8:00 am91 °FClear.5 mph63%29.53 "Hg4 mi
9:00 am91 °FClear.5 mph59%29.53 "Hg4 mi
10:00 am97 °FClear.1 mph44%29.53 "Hg5 mi
11:00 am102 °FClear.5 mph31%29.50 "Hg6 mi
12:00 pm108 °FClear.6 mph18%29.50 "Hg6 mi
1:00 pm108 °FPassing clouds.8 mph16%29.47 "HgN/A
2:00 pm106 °FSunny.10 mph20%29.47 "Hg10 mi
3:00 pm104 °FSunny.14 mph28%29.45 "Hg10 mi
4:00 pm102 °FSunny.14 mph29%29.45 "Hg10 mi
5:00 pm102 °FSunny.10 mph27%29.45 "Hg10 mi
6:00 pm99 °FClear.10 mph53%29.45 "Hg4 mi
7:00 pm95 °FHaze.9 mph71%29.45 "Hg3 mi
8:00 pm95 °FHaze.6 mph71%29.47 "Hg3 mi
9:00 pm95 °FClear.6 mph63%29.47 "Hg4 mi
10:00 pm97 °FClear.5 mph56%29.47 "Hg5 mi
11:00 pm93 °FHaze.3 mph75%29.47 "Hg3 mi
Weather by CustomWeather, © 2020

See weather overview